Theta_e
361 359 359 358 358 358 360 357 359 364 360 357 359 360 357 355 350 346 347 353 342 348 348 344 356 358 362 365 357 354 358 363 357 357 360 361 365 357 349 353 352 352 352 353 353 354 355 355 356 357 360 359 358 357 357 357 359 360 359 359 361 362 362 359 357 356 355 354 352 349 347 345 344 343
363 360 359 358 357 361 359 358 358 368 365 357 360 360 360 362 355 350 346 350 350 344 347 349 348 362 360 358 358 357 355 363 361 358 359 358 360 349 351 354 354 354 353 353 352 354 355 356 356 354 353 351 351 353 356 357 358 359 360 360 361 362 360 357 356 355 355 354 352 350 348 346 345 343
362 364 360 363 358 362 362 362 356 361 363 361 362 361 362 362 359 357 354 346 351 349 344 345 350 353 358 354 353 350 352 354 358 357 362 363 354 349 357 353 353 353 353 351 350 349 350 351 350 347 346 347 348 351 354 357 357 358 358 359 360 357 356 355 354 354 354 354 353 350 348 347 345 344
362 364 362 365 362 364 364 364 363 360 362 364 361 362 363 363 362 361 357 351 350 355 346 347 349 350 356 356 354 356 354 349 356 365 359 367 356 364 354 350 351 353 352 352 349 347 346 345 344 344 346 347 349 352 355 354 355 357 357 357 355 352 351 350 350 351 351 351 351 351 349 347 346 344
364 365 363 363 365 368 365 362 359 359 360 362 360 361 359 358 361 361 360 355 351 356 356 353 350 353 354 349 354 353 352 352 354 355 359 360 355 352 351 351 348 349 351 349 347 346 346 343 341 342 344 346 348 351 354 353 352 352 351 350 346 344 345 346 346 347 348 348 350 350 349 348 346 344
360 366 366 363 362 364 361 358 357 356 355 355 355 357 358 357 359 364 357 356 353 352 357 354 357 352 352 348 355 354 350 351 358 353 355 355 355 351 350 350 348 344 348 346 345 345 344 342 340 341 343 344 346 348 348 346 344 343 343 341 338 338 337 338 341 342 343 344 346 348 348 347 345 344
362 360 361 360 361 355 356 358 358 356 355 354 354 352 353 353 352 354 357 356 353 353 354 357 352 351 352 352 353 354 352 359 355 358 353 350 350 351 350 348 345 345 344 346 345 343 342 341 341 340 340 341 343 343 343 340 338 338 337 334 336 337 337 336 337 338 338 340 342 346 346 346 345 344
361 358 359 358 358 358 357 357 356 354 351 351 352 352 356 357 356 358 359 359 358 356 353 358 356 355 354 356 357 354 355 351 353 353 354 353 351 349 346 347 347 345 341 348 344 342 340 340 340 339 338 339 337 337 337 335 335 335 334 333 333 332 332 331 331 334 333 334 335 338 342 344 344 341
361 360 358 357 358 358 356 355 353 353 353 353 353 352 354 353 353 354 355 357 357 357 354 355 359 360 359 358 357 356 353 354 357 361 360 351 350 351 350 348 345 343 339 340 339 337 338 340 339 338 338 338 337 336 335 335 335 333 332 331 330 330 330 329 327 328 329 329 330 330 332 337 340 340
359 357 358 356 356 355 353 352 353 356 355 354 350 351 353 353 354 356 356 357 358 356 356 357 353 358 350 352 356 356 355 350 348 351 354 359 360 359 352 350 350 350 348 348 350 344 342 338 334 337 340 338 336 336 335 335 334 332 330 326 324 326 327 326 327 327 326 326 329 330 330 333 334 335
358 358 356 357 355 356 355 352 353 354 354 353 355 356 356 355 354 352 352 353 351 350 349 349 349 348 349 351 349 354 359 358 354 353 352 354 355 358 357 357 356 356 353 353 348 349 348 345 349 340 334 334 334 335 335 334 333 333 331 326 324 324 323 323 324 325 325 326 326 325 323 326 333 334
356 355 355 354 355 357 358 357 357 356 352 352 352 351 353 353 352 352 352 351 350 351 350 348 345 347 353 354 353 352 358 356 358 353 349 349 352 354 366 360 356 358 359 356 355 348 346 346 344 335 335 336 335 335 335 336 338 337 335 331 332 330 326 324 324 324 323 323 322 322 321 320 324 329
356 355 354 353 354 358 360 361 364 366 364 354 354 358 358 359 357 357 356 354 355 353 350 351 352 348 350 351 353 346 347 348 349 351 350 351 350 351 352 358 360 361 359 357 355 355 359 359 359 355 360 364 356 352 340 346 346 340 335 333 333 332 330 327 326 325 325 324 323 321 321 321 321 324
353 353 354 353 359 365 358 361 366 365 361 363 359 358 360 362 362 360 358 357 355 353 350 346 344 342 342 343 349 348 350 353 357 356 356 353 354 358 357 361 363 364 361 358 360 359 362 360 359 361 360 360 366 360 365 362 356 349 338 336 333 332 332 329 328 326 325 324 323 322 320 320 322 321
354 353 352 352 355 367 367 366 370 370 366 365 363 359 358 361 362 358 356 355 353 352 348 347 348 347 349 352 355 356 355 357 357 357 360 358 358 357 354 352 362 368 365 366 362 362 365 366 361 361 359 359 358 357 364 346 345 340 335 334 334 332 331 331 330 329 325 324 322 321 320 319 320 320
353 352 351 349 349 350 353 354 366 369 365 360 360 358 357 357 356 356 361 361 358 358 353 353 354 353 352 355 359 357 358 358 358 361 360 361 359 356 355 354 354 366 368 363 362 359 366 366 360 360 359 359 356 353 358 340 344 340 337 336 334 333 332 331 332 332 330 328 326 325 323 322 322 321
354 357 356 352 350 350 358 354 353 362 369 363 355 357 358 357 353 343 341 345 358 360 360 358 356 356 357 357 359 361 361 364 360 360 358 359 359 359 356 356 358 363 371 364 360 357 361 363 360 357 359 358 358 356 346 342 343 339 337 334 334 333 332 332 331 331 330 328 327 325 324 322 322 321
352 356 355 355 356 355 358 363 366 360 359 363 370 371 369 368 369 360 345 342 342 349 355 358 357 361 364 362 364 366 365 361 358 356 355 359 356 356 356 360 360 362 363 360 359 357 359 362 360 358 359 360 362 362 357 335 338 338 335 334 332 332 331 330 330 329 329 328 326 324 321 320 320 320
354 355 353 354 353 358 362 349 354 367 367 367 365 366 365 364 363 363 362 363 365 364 360 360 362 364 366 366 364 363 363 361 361 360 360 359 359 358 360 360 361 360 363 360 358 352 355 357 354 354 356 358 361 367 343 335 335 336 334 334 334 331 330 330 330 329 328 327 326 324 321 319 317 316
358 357 359 363 362 363 356 338 333 345 362 365 364 362 360 362 364 363 364 352 351 368 370 366 365 363 362 345 359 361 357 360 363 363 361 361 360 358 354 351 353 353 357 358 357 352 352 359 353 355 360 362 363 367 366 348 337 335 334 335 333 331 329 329 329 328 327 327 326 324 320 317 315 314
361 358 362 364 361 361 346 330 324 331 353 361 360 361 360 361 361 359 362 351 344 339 333 330 330 329 329 329 329 328 328 343 352 356 355 355 357 353 349 350 350 351 353 356 356 355 353 358 358 355 358 361 361 361 362 364 343 331 334 334 333 331 330 329 326 326 326 326 324 324 322 317 315 315
356 359 364 365 364 353 341 323 323 328 349 357 358 358 356 355 355 357 358 361 359 346 338 335 333 332 332 332 330 330 329 329 336 354 353 356 357 353 351 348 351 353 356 359 360 357 355 357 359 357 358 361 363 356 360 364 361 332 329 329 329 329 329 328 325 325 325 324 324 322 320 317 315 328
354 358 352 349 344 342 331 318 320 324 341 350 351 353 353 352 353 357 357 356 354 356 355 356 360 364 352 363 367 363 346 338 345 356 359 359 356 353 352 352 351 348 352 359 364 356 356 356 357 357 353 351 357 362 362 362 363 365 368 370 361 331 327 327 325 322 322 323 323 322 319 315 316 344
354 355 353 339 325 322 320 316 315 318 320 339 344 346 347 349 352 351 347 348 348 349 347 349 351 352 354 354 356 355 354 359 369 366 364 362 358 355 353 353 354 347 350 359 362 359 357 358 355 360 356 348 346 355 359 361 363 363 362 365 362 347 332 330 327 322 320 322 321 320 319 314 318 347
351 350 352 352 328 318 317 314 313 314 317 324 340 342 343 346 344 337 343 347 350 350 351 351 349 349 351 352 351 353 356 353 356 358 360 364 365 360 356 354 352 352 355 360 354 362 354 357 354 356 356 356 353 351 356 359 361 361 364 365 364 370 368 367 358 365 333 321 318 317 315 315 314 334
348 350 350 352 332 316 315 311 310 310 313 318 335 341 328 321 323 344 349 352 353 351 348 347 347 348 348 348 350 350 351 352 353 355 357 356 356 358 358 357 355 352 353 365 349 364 359 356 358 358 354 354 353 354 352 355 358 360 365 366 365 366 367 365 362 364 366 368 369 333 328 315 315 316
348 348 343 345 333 313 310 308 308 309 309 316 331 322 321 321 321 329 345 352 352 351 349 348 347 347 348 348 347 348 349 350 355 353 354 355 358 362 361 361 361 358 359 362 365 363 362 357 358 359 354 355 352 351 352 351 353 359 358 360 362 364 367 365 364 363 365 365 368 332 318 315 315 316
343 345 343 340 311 308 305 305 308 310 316 329 319 314 315 319 326 341 349 351 349 351 349 347 347 347 346 345 345 346 351 351 355 353 354 358 360 361 360 360 359 361 362 361 362 362 364 362 358 359 360 354 350 346 345 351 353 355 355 359 360 361 363 365 365 362 363 365 364 365 357 349 338 329
342 331 313 309 310 312 310 308 310 316 320 313 311 313 315 330 346 350 352 350 348 346 345 344 343 343 343 344 346 351 353 351 351 355 355 357 357 355 356 356 360 360 358 357 359 361 362 362 364 363 360 360 353 352 351 351 353 354 355 355 354 357 360 363 364 364 363 362 360 362 364 364 363 346
324 318 315 313 311 315 320 336 344 346 349 332 325 322 326 344 346 350 347 345 343 342 340 340 338 337 337 339 343 347 349 351 348 350 351 350 348 348 345 344 347 352 354 357 358 360 362 364 367 364 360 359 357 354 356 353 352 355 355 356 356 357 359 365 368 367 360 357 357 359 365 366 367 363
337 338 332 334 329 327 326 326 328 332 337 342 343 342 343 345 344 341 342 337 337 338 339 337 334 335 336 339 342 343 341 340 343 343 347 344 342 343 343 343 342 343 350 355 357 359 361 363 367 362 357 355 355 357 357 355 352 353 355 358 358 352 356 362 362 365 364 360 360 360 364 366 367 363
334 335 337 333 340 341 340 339 339 339 342 342 343 341 338 335 334 336 335 336 339 340 336 333 335 336 338 337 335 334 334 335 338 341 339 337 337 337 340 341 341 341 344 347 350 359 361 362 364 364 364 359 354 356 358 356 353 353 354 356 357 360 361 361 356 357 364 363 358 361 365 364 363 364
335 335 335 336 337 338 339 338 341 342 343 343 338 333 335 335 332 334 335 334 334 334 331 329 331 332 333 333 332 332 333 336 336 338 339 339 337 340 341 339 339 339 338 340 347 352 354 358 361 361 361 361 360 360 358 350 352 354 354 356 357 358 362 364 355 355 361 360 358 357 358 361 363 363
329 331 331 334 332 332 334 334 333 331 332 333 333 334 330 332 332 333 331 332 331 330 327 328 328 331 329 328 330 332 331 332 331 333 331 336 339 337 332 331 333 337 342 340 338 336 339 346 350 351 352 356 355 360 361 357 353 353 353 354 355 353 357 361 364 362 362 358 356 355 356 357 360 362
336 332 331 332 333 334 334 332 331 333 332 330 330 332 331 331 330 329 329 331 328 326 325 328 329 327 326 328 329 328 328 328 328 330 334 333 335 331 330 330 331 334 332 330 330 334 334 335 336 332 339 344 344 350 351 362 352 350 354 353 353 352 355 357 359 362 362 361 359 352 352 354 356 360
326 328 329 330 331 333 332 330 330 329 329 330 330 330 329 328 328 328 329 330 328 327 328 328 325 325 326 327 328 327 325 326 327 328 329 329 328 328 328 329 329 330 330 329 329 331 330 328 329 328 327 328 329 330 337 350 353 354 347 345 343 345 345 349 354 353 349 349 353 352 349 349 352 357
326 329 329 327 329 328 328 330 330 330 329 329 329 328 327 326 327 328 331 327 329 329 328 327 325 325 326 327 326 324 325 326 325 326 326 326 328 327 326 327 328 329 327 329 330 328 329 327 330 330 328 326 327 330 334 344 336 336 341 332 339 339 342 343 344 343 342 345 349 350 350 351 350 353
326 325 326 327 329 329 330 328 327 328 329 328 328 328 326 327 329 330 330 329 326 326 325 325 325 326 326 325 325 325 326 326 326 325 324 325 326 326 326 325 325 325 326 326 326 325 328 329 330 329 329 330 330 327 326 330 330 327 331 338 328 330 334 337 335 336 343 346 347 350 351 348 349 352
327 327 327 327 327 328 326 327 326 326 327 326 326 325 326 326 326 326 324 324 326 325 323 323 325 325 326 326 326 325 325 325 324 324 324 324 324 325 324 324 324 325 323 322 323 326 328 328 327 328 332 329 327 326 325 322 320 324 324 319 329 331 333 335 336 339 342 344 344 348 349 353 346 335
328 327 325 324 325 325 325 326 325 325 324 325 324 324 324 323 323 324 323 323 324 323 323 323 324 321 324 326 325 325 324 325 323 323 324 324 323 323 323 324 322 322 321 321 322 324 325 325 327 328 327 326 326 326 325 325 326 330 333 334 318 328 338 338 336 335 333 334 336 337 340 344 343 348
325 324 325 327 326 325 324 324 324 324 324 325 325 324 325 324 323 323 322 321 322 321 321 322 323 324 323 323 323 322 321 321 322 323 322 322 322 322 321 319 321 322 321 321 322 322 323 325 332 324 331 328 330 331 328 325 323 326 327 329 321 319 320 325 339 335 332 338 339 337 336 335 336 338
324 324 324 325 325 326 324 324 324 323 323 324 324 323 324 324 324 323 320 322 323 324 321 320 321 321 321 321 321 320 319 319 319 320 321 320 320 321 319 320 319 320 320 319 320 321 325 328 329 329 328 326 325 323 321 322 321 323 326 328 330 323 320 318 315 319 341 338 333 327 325 325 329 329
323 323 323 323 324 324 324 324 326 326 324 324 323 324 323 321 321 320 321 321 322 319 319 319 320 319 320 320 319 320 318 318 318 319 319 319 318 317 317 318 319 320 321 321 322 323 324 325 327 324 324 324 323 322 320 321 322 322 324 325 326 328 330 323 321 320 319 319 320 326 333 330 328 325
322 321 321 321 321 323 325 325 325 326 326 325 324 323 322 321 320 319 320 319 318 317 318 318 318 317 318 318 318 319 318 318 317 316 315 316 317 317 317 318 318 319 320 320 320 321 322 322 323 323 321 320 321 320 319 320 320 322 322 323 325 326 326 328 331 325 324 323 321 317 318 321 326 328
320 319 319 320 320 321 321 321 321 321 321 321 321 322 321 321 319 319 319 319 318 318 318 318 317 317 317 317 316 315 315 313 313 315 315 316 316 317 317 317 317 317 317 318 318 318 320 321 322 321 320 320 321 321 320 320 320 320 321 322 322 324 325 325 325 326 327 329 325 321 319 319 320 320
Wind_Speed
4 4 3 3 2 3 2 5 2 0 2 4 3 3 3 3 4 3 3 3 6 4 5 4 5 4 3 4 4 6 7 2 3 6 6 5 5 8 7 8 10 9 9 9 9 9 9 9 10 10 10 9 9 10 10 11 11 11 12 12 12 12 12 12 11 11 11 11 10 10 9 10 10 10
4 3 3 0 5 2 2 5 4 5 2 3 3 4 3 2 2 3 4 5 5 6 6 5 2 4 6 6 4 4 7 5 4 6 6 7 7 7 11 13 14 12 11 11 10 9 9 9 9 10 10 10 10 10 10 10 10 11 11 12 12 11 11 11 11 11 11 11 10 10 10 11 11 10
3 2 4 2 4 3 3 3 6 2 2 3 3 2 2 2 3 3 3 5 3 6 7 7 8 5 5 7 6 7 6 3 3 6 5 6 8 9 12 16 18 13 13 13 11 10 10 10 10 10 10 11 10 10 10 10 10 11 11 12 12 11 10 10 10 10 10 10 10 11 10 11 11 10
2 3 4 3 4 4 4 5 5 4 4 3 3 3 2 2 3 2 3 5 6 5 7 8 7 8 6 5 5 4 6 5 9 4 5 7 8 9 9 11 13 15 15 13 12 11 11 11 10 10 10 11 11 10 10 11 10 10 10 11 11 11 10 9 9 9 9 10 10 10 10 11 11 11
2 4 4 4 4 5 5 5 5 5 4 4 4 4 4 4 4 3 3 5 6 5 6 7 7 7 7 7 6 6 6 7 6 8 8 7 9 9 9 9 7 11 13 12 12 13 13 12 11 11 11 11 11 11 10 11 11 11 12 11 11 11 10 9 9 8 8 9 9 10 10 11 11 11
5 3 4 5 6 6 6 6 7 6 5 5 4 4 4 4 3 2 4 5 6 7 6 7 7 8 7 7 5 6 8 8 7 9 8 9 9 8 8 8 10 6 10 11 14 15 14 12 11 12 12 12 12 12 12 12 12 12 12 12 11 11 10 10 8 7 7 7 8 9 10 10 11 11
5 6 5 6 6 6 6 5 6 6 6 5 5 6 5 6 6 5 4 4 6 7 7 7 8 7 7 7 7 8 8 6 7 8 9 9 9 9 10 10 10 1 10 13 14 16 15 11 12 12 13 13 13 13 13 13 12 12 12 12 11 11 10 10 8 7 6 8 8 9 9 10 11 11
6 6 6 6 6 6 6 5 5 6 6 6 5 6 5 5 6 5 5 5 5 6 7 7 8 8 8 8 8 8 8 9 8 9 8 9 10 10 11 10 10 3 10 13 16 16 13 12 14 14 13 14 14 14 14 13 12 12 12 11 10 10 10 10 9 9 8 8 9 9 9 9 10 10
6 6 7 6 6 6 6 6 6 6 7 5 6 6 5 5 5 5 5 5 6 6 8 8 7 8 8 8 8 7 8 8 8 7 7 9 10 9 10 10 9 11 11 14 16 14 12 14 15 14 14 16 16 15 14 14 13 12 12 10 9 9 10 10 10 9 8 7 7 7 7 9 10 10
7 7 7 7 7 7 7 7 6 5 6 6 6 7 6 6 6 6 6 6 6 7 7 8 9 7 8 7 6 6 7 9 9 9 8 8 8 7 9 9 9 9 9 10 9 7 10 14 15 14 15 16 17 17 15 14 14 13 12 11 10 9 10 10 10 10 8 8 7 7 8 8 9 9
7 8 8 8 7 7 7 7 7 7 7 6 7 6 6 6 6 7 7 6 7 7 8 8 7 8 7 6 8 7 7 8 8 9 9 8 7 7 7 9 9 10 10 11 9 13 16 14 8 11 14 15 17 17 15 15 16 14 13 11 10 9 10 10 10 9 8 8 8 8 8 8 9 10
8 8 9 9 8 7 7 7 7 7 7 6 7 6 6 6 6 7 7 7 7 7 8 8 9 8 7 7 8 8 6 6 6 6 8 9 9 8 6 8 9 9 10 11 11 10 7 8 12 15 15 15 16 16 15 17 16 13 11 11 11 10 10 10 9 9 9 8 9 9 9 9 9 9
8 8 9 9 9 6 6 7 2 5 7 6 7 7 6 6 6 7 7 7 7 7 8 8 8 8 8 8 7 8 7 7 9 8 10 10 10 9 9 8 8 9 11 11 12 11 10 10 10 11 11 9 10 14 17 13 14 12 12 12 11 11 10 10 9 9 9 9 10 10 10 10 10 10
9 9 9 9 9 9 8 1 4 6 9 7 7 6 6 6 7 6 7 8 8 8 8 9 9 9 10 10 9 10 11 10 9 10 9 10 10 10 11 10 8 9 11 12 10 11 10 11 12 11 11 10 9 7 5 2 4 10 13 12 11 10 10 9 9 9 9 10 11 11 11 11 11 11
9 10 10 9 9 8 8 8 9 9 8 8 8 8 8 7 7 8 9 8 8 8 9 10 10 10 11 11 9 7 11 11 11 10 9 10 10 9 10 12 9 6 8 8 10 10 10 10 12 11 11 11 10 10 1 7 7 13 11 11 11 10 8 8 9 9 10 11 12 12 11 11 11 11
9 9 10 10 9 9 9 9 8 9 10 9 10 9 9 9 10 9 8 8 8 9 9 9 10 11 10 11 10 10 10 10 11 11 11 9 9 10 11 10 11 7 8 10 10 13 10 9 11 11 10 10 10 9 5 11 9 10 10 9 9 8 8 9 9 10 10 11 11 11 11 11 11 12
7 7 7 8 9 9 10 6 7 6 7 9 12 11 9 9 10 11 11 11 10 9 10 10 10 9 9 11 10 10 10 10 11 10 9 9 10 10 11 11 11 11 9 11 11 12 11 9 10 10 8 9 10 10 7 8 7 8 10 10 9 8 9 9 9 10 10 11 12 12 12 12 12 13
8 6 7 7 8 8 8 9 9 7 7 6 3 6 5 6 8 9 14 15 15 12 10 10 11 10 8 9 9 9 8 9 9 10 12 11 13 13 13 14 13 13 11 11 11 11 11 9 9 10 9 9 8 8 2 8 10 12 11 11 10 10 9 9 9 9 10 10 11 11 12 12 12 12
10 9 9 8 9 6 10 7 10 6 4 3 4 6 4 6 2 5 6 7 6 6 7 9 11 9 8 8 9 10 10 10 9 9 11 12 12 13 13 12 12 12 9 11 8 10 10 9 9 9 10 11 10 6 5 9 11 12 12 11 11 10 10 10 10 11 11 11 11 12 11 10 10 10
8 8 6 7 6 8 5 10 11 11 7 5 6 7 8 7 4 5 6 6 5 6 6 7 9 9 11 10 10 10 10 10 9 9 10 10 10 11 12 12 11 10 9 10 9 9 10 8 10 10 10 9 8 7 7 6 9 12 10 11 12 12 12 12 12 12 12 12 12 12 11 10 10 9
7 8 5 3 3 4 7 8 11 11 9 5 6 6 7 7 7 7 7 7 6 8 7 9 11 13 14 16 16 16 17 12 8 7 9 10 10 11 12 12 12 11 10 8 10 9 10 9 9 10 9 8 9 9 8 7 5 10 12 14 14 14 14 14 14 13 13 13 13 12 11 11 9 7
4 3 11 9 3 7 6 7 9 9 5 3 4 6 7 7 7 7 8 7 6 6 8 10 12 13 14 15 17 18 18 18 11 5 9 11 9 11 11 12 11 12 10 7 7 7 8 10 9 10 9 9 8 9 9 7 4 8 10 14 15 14 15 14 14 13 13 14 13 12 12 10 8 5
3 1 9 12 9 7 5 6 8 9 7 3 4 5 6 7 7 6 5 6 8 8 9 9 9 8 9 9 9 11 16 18 14 8 10 10 10 10 10 10 10 12 9 6 8 8 9 9 9 9 10 10 9 8 8 8 9 7 6 6 8 14 15 14 14 14 16 15 15 14 12 11 10 5
1 2 4 5 6 6 6 6 6 6 4 3 4 5 5 6 6 6 8 8 8 9 9 9 9 10 10 10 9 9 9 7 6 7 7 7 7 7 9 9 7 9 11 9 7 7 9 9 10 8 6 7 9 10 11 9 9 9 9 8 10 7 10 13 11 16 17 16 16 15 13 12 12 6
3 1 1 1 4 3 5 5 4 2 2 1 3 4 5 5 5 7 8 9 11 9 8 8 8 8 7 7 8 7 6 7 7 7 5 5 5 5 6 7 11 12 11 9 6 7 11 10 10 10 8 7 8 11 9 10 10 8 7 6 8 7 6 6 6 7 12 18 17 16 12 13 15 10
4 3 5 3 2 4 5 7 5 4 2 3 3 5 6 8 7 6 7 7 7 6 6 7 7 7 7 7 7 6 7 8 8 8 8 8 9 9 8 9 11 12 12 9 9 7 7 10 7 6 7 8 9 8 10 9 9 8 7 6 7 8 6 7 9 10 8 5 4 8 10 14 15 17
3 1 3 2 2 4 5 6 7 7 4 3 6 9 11 10 6 6 6 6 5 5 5 7 7 7 7 7 7 7 8 8 8 9 9 10 10 9 9 10 11 12 12 12 11 11 6 6 9 8 7 8 10 11 10 9 9 8 10 9 9 9 8 7 7 9 9 7 7 6 9 12 15 16
2 4 4 2 6 7 7 7 8 8 5 4 7 8 9 10 7 5 7 6 5 5 5 6 6 7 7 8 8 7 8 8 9 10 10 9 9 9 9 10 11 11 12 12 11 10 7 4 6 8 5 6 9 9 9 8 8 9 10 10 10 9 8 7 7 8 8 9 10 3 4 5 6 6
4 6 6 7 8 8 8 9 8 7 7 10 10 13 12 8 6 5 5 4 4 5 6 6 6 6 7 7 7 7 8 9 10 9 8 8 8 9 10 9 9 10 10 10 10 9 8 6 5 4 5 5 7 9 10 11 9 11 10 11 11 9 9 8 8 7 7 9 10 12 9 8 4 7
9 10 10 10 10 10 8 6 5 5 4 7 13 13 11 6 7 7 2 3 4 5 6 6 6 6 7 7 7 8 8 8 8 8 8 8 9 9 9 10 10 10 11 10 10 10 8 5 3 5 6 7 8 9 10 11 10 9 9 9 9 10 7 5 6 5 5 8 10 11 9 8 8 5
6 8 8 7 8 7 9 9 9 9 10 6 6 7 8 9 6 2 3 3 4 5 5 5 6 7 8 8 8 7 6 7 7 7 7 8 9 9 9 10 11 10 9 9 9 8 8 6 5 4 6 7 8 9 10 10 11 10 9 8 6 8 8 7 6 4 5 7 8 10 10 8 8 7
8 8 7 9 8 7 6 7 7 6 6 7 6 4 2 3 5 0 1 4 3 3 4 6 7 7 7 7 7 8 8 8 8 7 8 8 9 9 9 10 10 10 10 8 8 7 6 5 5 4 5 7 8 10 8 9 10 10 10 9 9 8 7 5 7 8 7 6 8 8 7 8 9 7
7 7 7 7 7 6 6 6 7 7 7 8 4 4 3 2 5 4 2 4 4 4 6 7 7 8 7 7 8 8 8 7 7 7 7 7 9 9 8 9 10 10 11 10 8 7 7 7 6 6 7 8 9 11 10 10 9 9 10 10 8 8 4 3 2 8 9 8 8 8 9 8 9 9
6 6 6 5 5 5 4 4 4 4 2 1 1 2 1 3 4 4 5 5 5 7 7 8 7 7 7 8 7 7 8 8 8 8 8 8 8 8 9 10 9 9 9 10 10 10 9 9 9 9 9 8 9 10 9 10 11 9 9 9 9 9 7 5 3 6 6 7 8 9 10 9 8 9
5 6 6 5 5 4 4 4 4 1 2 4 4 4 5 5 5 5 5 6 7 8 8 8 7 7 8 8 7 8 8 9 9 8 8 7 8 9 9 9 9 9 10 10 10 9 9 10 10 11 9 8 9 7 9 11 10 9 8 8 7 8 8 7 6 6 6 7 7 10 11 12 11 9
6 6 5 5 5 4 3 3 3 3 3 3 3 4 4 5 6 5 5 7 8 8 7 7 8 8 7 7 7 8 9 9 9 8 8 8 9 9 9 9 9 9 9 9 9 9 10 11 11 11 11 11 10 10 7 6 2 6 8 9 9 9 9 9 8 9 9 10 9 9 11 13 12 10
6 6 5 5 5 4 4 3 2 3 4 4 4 4 4 5 5 5 6 6 6 6 6 8 8 8 8 7 8 8 8 8 9 8 9 9 9 9 9 9 9 9 9 9 9 10 10 10 9 10 10 11 11 11 10 6 8 7 8 11 10 10 10 9 10 11 11 10 10 10 10 11 12 10
6 5 6 5 4 4 4 4 4 4 4 4 4 5 5 5 4 5 5 6 6 6 7 8 9 8 8 8 9 9 8 8 8 9 9 9 9 8 9 9 10 9 9 9 10 10 10 9 9 9 9 9 10 11 13 11 11 8 3 8 12 12 10 11 12 11 10 10 10 9 10 11 11 9
7 6 4 4 3 4 5 5 4 4 4 4 4 4 4 5 5 5 5 7 6 6 8 8 8 8 9 9 8 8 9 9 9 9 9 9 9 9 9 10 10 9 10 11 10 10 9 8 8 8 6 7 8 10 11 13 16 15 10 9 11 12 12 10 11 11 11 11 11 9 10 10 13 15
6 5 4 4 4 4 4 4 4 4 5 6 6 6 6 6 6 6 6 6 6 7 8 9 8 8 9 8 9 9 9 10 10 9 10 10 10 10 10 9 10 11 11 11 11 9 9 9 8 7 8 9 10 12 13 14 15 15 15 12 19 16 11 9 10 10 12 11 11 13 13 12 12 10
4 5 4 3 4 5 6 6 6 6 7 6 7 6 7 7 8 8 8 8 8 8 8 8 8 9 9 8 9 9 10 10 10 10 10 10 10 10 10 11 11 10 11 12 11 11 10 8 9 12 11 11 11 10 11 11 12 12 12 11 9 7 9 8 9 11 12 10 10 12 13 13 13 12
4 4 4 4 4 4 5 5 6 7 6 6 6 7 6 6 7 8 9 10 9 7 8 8 7 8 8 8 9 9 10 11 11 10 10 10 11 11 11 10 11 11 11 12 11 12 11 10 11 10 10 10 10 11 12 12 13 13 12 13 12 10 13 15 13 8 8 8 10 13 13 12 11 12
5 6 6 6 6 5 6 6 7 7 7 6 5 4 4 6 8 9 8 8 8 8 8 8 8 9 9 9 9 9 10 10 11 11 11 11 11 12 12 11 11 12 12 12 12 12 12 11 10 10 10 10 10 10 13 13 13 14 14 14 14 12 11 12 16 19 19 19 18 15 13 13 11 12
5 7 8 10 10 9 8 7 8 8 9 8 7 7 7 7 7 8 9 9 10 10 9 9 9 9 10 9 10 10 10 10 10 12 12 12 12 12 12 12 12 12 12 12 12 12 12 12 11 11 11 11 11 11 13 14 14 13 13 14 14 14 15 13 11 11 13 17 21 22 23 23 21 22
5 6 7 7 7 7 7 7 8 8 9 9 8 7 7 7 7 7 9 10 10 10 11 11 11 11 11 10 11 11 11 11 12 11 11 11 11 11 12 13 13 13 12 11 12 13 12 11 11 11 12 12 11 11 13 13 14 14 15 15 16 15 14 13 14 14 13 12 10 13 16 19 22 25
Wind_Direction
282 227 185 272 253 280 304 279 45 190 34 293 313 294 351 4 334 342 324 305 298 257 315 301 147 213 196 221 263 263 264 47 358 324 307 306 291 161 251 301 298 281 262 253 251 255 262 269 275 277 272 279 277 277 278 279 279 276 276 274 272 269 268 269 266 260 256 251 246 240 227 237 246 255
267 301 263 25 300 289 339 341 293 157 273 295 302 337 351 342 352 324 321 315 295 306 311 315 33 336 313 286 264 327 322 126 304 319 307 301 307 357 317 279 274 266 259 251 245 243 251 263 269 275 280 281 277 271 268 271 270 270 269 270 271 269 268 270 268 264 259 252 246 240 228 234 243 249
236 282 294 283 250 287 288 259 269 314 321 296 297 287 314 302 316 322 310 297 301 321 307 311 317 283 301 326 343 316 322 257 229 307 308 299 311 298 280 272 265 252 246 242 240 237 245 252 259 269 274 275 273 272 266 264 264 265 266 266 267 268 267 268 270 269 264 256 248 241 234 232 241 248
169 212 242 240 268 268 266 267 291 284 266 266 270 269 285 282 274 262 283 278 299 296 298 311 294 293 325 329 301 331 296 293 183 278 298 286 263 267 289 269 243 242 234 232 230 237 241 243 253 261 265 269 274 274 266 268 267 262 264 266 269 269 268 266 268 268 266 261 253 244 234 231 236 244
253 250 250 264 265 277 279 278 274 278 267 255 249 245 246 255 251 241 246 282 291 293 303 297 299 323 321 304 326 303 298 305 317 316 292 300 300 295 293 301 272 225 229 219 226 234 236 240 247 256 260 265 270 274 268 272 275 275 275 274 273 271 267 265 262 265 266 263 256 247 238 239 237 236
262 242 238 249 257 241 250 270 276 270 272 270 272 249 254 261 272 259 279 289 303 301 301 304 315 301 295 293 305 307 300 293 290 287 292 292 290 291 302 307 305 278 212 205 224 232 235 237 243 250 258 262 267 269 270 269 271 274 275 274 273 270 266 263 260 261 265 265 259 250 241 233 227 232
237 238 245 251 249 255 247 242 255 272 285 290 304 313 311 308 300 297 301 307 291 298 297 298 298 308 318 305 301 296 290 288 282 283 289 298 307 305 304 305 304 251 181 201 226 232 237 238 242 246 254 262 262 262 265 270 272 273 272 272 273 272 271 268 267 270 277 274 267 257 244 236 233 228
239 250 249 257 265 276 285 286 291 289 285 283 278 286 283 272 277 285 279 259 270 281 290 295 299 308 307 304 301 299 301 298 305 305 302 293 294 305 304 299 298 181 189 215 229 243 248 240 243 245 251 257 258 258 259 265 271 271 272 273 274 276 276 276 272 270 269 262 259 256 257 248 236 227
263 263 266 263 259 255 257 262 260 266 268 274 290 286 289 286 282 284 291 298 292 288 289 296 298 299 294 289 288 297 303 306 297 291 298 308 301 295 298 299 298 301 262 250 253 263 254 242 241 245 247 249 253 254 254 258 262 265 270 273 271 271 270 270 266 260 256 247 244 245 241 246 245 235
235 247 243 248 257 261 261 262 266 281 301 306 290 284 284 294 306 307 297 286 273 268 272 281 285 278 290 295 295 295 288 295 306 305 301 296 293 294 299 302 304 305 306 313 319 288 248 238 238 243 241 243 248 252 253 253 255 259 261 263 265 261 261 264 265 263 255 246 243 237 235 236 238 237
241 242 243 238 240 248 258 267 268 262 257 258 270 274 285 287 284 282 281 283 287 290 291 288 287 291 290 306 311 308 299 286 281 288 294 292 298 296 299 300 297 298 304 308 290 271 277 290 276 237 237 241 245 249 249 249 251 253 254 259 258 255 252 253 254 255 251 244 238 235 233 234 235 235
252 249 249 251 244 237 232 243 255 258 265 267 264 269 271 276 284 290 293 295 296 296 294 291 296 301 301 286 281 287 277 279 271 286 305 301 299 289 268 275 290 301 304 299 300 294 269 240 251 254 252 246 247 245 243 244 250 244 250 250 252 250 247 245 247 246 247 241 235 231 229 228 229 231
244 253 258 253 252 251 259 246 279 329 342 324 299 304 316 308 298 290 286 287 287 286 285 286 287 284 280 282 283 299 312 317 318 321 311 304 305 307 307 302 301 302 299 301 304 308 313 304 304 316 315 295 246 233 231 243 234 228 226 235 242 248 250 250 246 244 243 240 235 230 226 223 222 223
259 257 263 268 276 285 284 116 157 207 237 247 278 287 283 288 286 281 282 283 282 277 276 281 286 294 303 309 319 322 319 320 324 314 311 306 309 308 305 299 294 305 302 304 303 303 300 302 308 305 301 300 285 308 267 170 126 189 210 219 234 242 250 254 252 247 242 239 236 233 227 222 219 220
265 268 271 274 261 237 216 214 204 205 212 231 238 250 260 266 269 276 282 285 292 293 293 302 308 307 305 309 318 313 313 313 314 317 319 311 306 304 305 304 303 288 308 305 302 294 293 297 296 296 296 298 299 286 277 135 169 172 188 209 226 238 245 249 251 246 242 240 238 235 231 226 222 219
253 257 259 260 257 251 242 243 207 203 214 227 233 240 248 252 253 253 255 271 278 284 292 295 298 306 308 310 315 316 314 320 317 315 312 304 309 309 306 305 301 315 315 307 299 291 290 288 290 294 288 285 295 312 147 192 183 179 195 216 227 234 239 243 248 249 243 242 240 236 232 225 220 217
266 268 268 276 288 289 303 260 239 237 218 212 226 230 234 242 252 255 255 250 256 280 286 290 288 288 301 303 307 321 325 324 315 316 305 311 311 306 300 297 299 303 310 296 288 289 297 300 300 292 292 303 306 304 268 218 178 186 201 213 225 233 243 248 248 249 247 244 241 237 234 229 223 218
269 265 263 260 268 277 291 350 354 303 278 271 260 244 220 257 248 242 241 246 249 249 261 273 282 291 300 301 310 316 315 312 309 308 303 306 302 298 292 293 291 289 288 283 288 288 291 294 285 284 290 291 295 308 10 179 191 201 207 213 219 231 241 247 250 250 250 248 253 256 251 241 229 223
256 267 270 276 273 319 44 21 359 6 350 344 265 283 291 248 276 263 266 259 256 251 249 258 265 275 282 287 298 307 311 310 305 301 301 300 294 292 290 287 282 285 283 279 279 288 294 297 298 300 309 316 311 318 163 217 214 212 209 211 219 226 234 237 236 239 239 240 238 237 242 249 256 251
264 275 331 333 18 63 67 22 13 10 354 352 317 297 290 293 270 268 265 279 290 294 290 280 284 292 298 314 303 297 298 300 293 295 297 296 291 290 297 297 296 297 301 309 306 297 304 314 308 313 317 314 309 312 309 300 241 230 213 213 223 225 230 229 230 233 235 237 235 232 231 230 231 236
24 38 39 47 106 109 71 36 33 12 3 347 322 304 297 295 296 292 287 243 261 278 266 273 285 290 291 285 282 279 276 270 279 300 295 286 299 306 303 304 309 308 315 317 316 316 308 316 318 310 309 309 312 306 308 309 273 216 213 218 224 227 227 229 229 230 235 237 238 235 229 223 216 216
329 330 42 23 66 75 65 57 53 30 10 346 321 313 298 302 293 303 304 306 291 233 241 265 266 261 264 269 269 269 268 268 263 237 263 280 296 295 301 303 308 311 309 311 321 308 301 315 317 315 315 308 297 312 310 310 318 203 227 230 234 233 232 234 231 233 237 238 237 234 228 211 182 189
280 69 54 69 69 82 92 70 55 33 20 2 338 318 302 285 289 283 324 328 317 318 317 304 295 285 264 255 263 261 250 246 244 234 254 281 284 291 299 309 314 308 298 334 357 316 314 316 317 323 322 315 315 312 315 321 311 306 298 284 244 235 238 239 237 236 240 241 236 234 223 195 184 222
313 82 126 83 97 124 114 95 91 83 44 9 330 322 303 297 290 340 327 307 309 306 300 297 295 291 290 286 285 290 284 258 217 245 265 276 299 309 299 300 303 290 297 310 344 326 309 313 308 323 319 314 313 319 312 315 311 310 314 306 311 279 227 239 249 244 246 244 238 234 217 193 191 219
2 36 136 175 117 58 56 69 48 76 105 243 302 290 286 315 351 325 295 295 293 286 286 286 284 287 295 299 292 298 318 319 319 329 304 263 237 243 283 298 301 293 295 311 352 320 311 313 309 315 318 306 293 300 310 309 309 310 316 310 305 304 302 274 254 256 229 236 240 236 219 199 200 218
257 307 336 338 78 36 6 358 343 330 294 221 263 276 295 314 303 281 280 281 277 287 298 298 303 307 302 299 313 320 309 322 324 325 318 313 311 303 303 303 303 301 302 310 322 311 307 308 304 310 310 299 291 296 304 301 299 307 305 298 298 300 304 303 304 298 296 291 244 213 209 203 206 217
281 54 272 271 111 6 337 314 315 299 301 258 240 253 266 270 275 273 266 273 280 283 295 300 301 303 303 317 329 320 324 319 330 324 316 314 312 310 300 293 290 292 298 303 302 297 290 292 303 302 297 294 300 306 298 298 308 315 309 309 313 309 302 305 295 303 303 304 304 173 196 197 214 221
298 275 290 356 335 305 296 285 277 280 258 256 280 269 264 263 259 259 269 265 293 312 292 301 309 311 322 314 309 316 321 321 319 311 304 299 303 305 303 299 297 297 297 294 295 293 297 301 301 299 296 296 300 297 294 286 285 301 304 306 305 303 304 302 306 308 314 316 302 271 197 201 209 216
330 334 312 297 288 282 282 285 281 272 259 242 246 256 260 256 253 243 256 299 321 309 304 299 307 309 306 305 301 315 324 315 300 293 302 308 312 306 303 306 304 302 297 301 302 301 300 294 281 269 269 259 277 279 277 284 297 300 304 308 304 311 314 308 308 317 336 326 314 302 298 291 251 191
287 275 269 268 264 261 254 259 262 259 276 215 229 241 245 255 250 244 272 359 331 312 301 309 311 309 309 311 327 322 299 298 306 305 300 309 308 312 314 311 306 302 296 298 306 312 320 317 291 296 294 286 277 286 289 298 296 298 298 293 299 303 294 322 323 329 322 298 292 294 297 297 296 274
264 264 246 245 251 265 281 283 291 295 299 279 230 229 228 231 259 337 56 346 314 298 313 321 320 317 314 313 301 296 314 301 293 306 311 310 314 317 315 310 303 302 301 303 304 316 326 315 279 279 298 300 294 289 293 296 295 298 295 295 301 294 303 306 309 288 262 281 291 286 284 289 291 288
307 300 272 252 241 235 241 246 235 237 238 249 247 255 315 344 309 335 148 255 272 344 341 320 308 302 300 299 312 314 302 306 310 319 319 319 313 309 308 302 303 305 304 305 308 319 321 331 338 322 259 264 285 287 288 286 288 288 291 294 291 289 292 305 312 307 299 284 287 287 289 290 289 294
288 270 260 256 252 234 237 237 232 222 211 220 217 269 260 322 312 280 26 337 335 354 335 317 308 300 309 315 309 301 304 307 316 317 314 311 300 298 296 296 298 304 309 312 321 329 335 332 318 307 292 288 279 284 288 289 283 288 291 293 296 292 297 138 241 293 301 305 297 291 291 287 286 281
285 284 290 298 292 284 282 296 308 284 274 314 282 285 77 267 279 343 339 328 358 349 324 309 305 320 320 308 309 313 313 318 313 313 305 298 303 305 304 300 300 303 312 321 328 328 325 321 323 312 297 276 268 265 263 270 279 284 287 297 303 308 311 302 232 240 259 282 290 292 284 279 262 267
259 281 278 265 255 239 245 256 260 325 335 315 323 323 320 323 324 341 337 19 352 333 315 309 321 321 313 310 315 316 318 315 310 307 307 309 312 304 305 305 311 321 322 321 318 320 324 323 317 307 293 284 281 265 237 239 266 287 303 305 313 317 316 312 297 278 269 263 262 275 281 281 280 276
293 297 293 286 282 292 293 293 313 308 301 317 317 323 321 336 342 336 339 11 338 315 306 327 323 311 309 312 316 321 314 310 306 312 317 316 310 311 309 308 309 312 316 313 312 320 324 314 310 308 306 304 301 299 293 241 278 321 326 318 316 310 303 305 300 298 291 287 282 281 283 285 290 295
289 287 283 286 285 278 266 266 301 331 332 329 327 343 333 314 323 342 345 339 302 302 325 322 309 314 313 315 323 313 308 310 312 315 310 310 312 309 307 307 313 315 309 309 316 315 313 307 304 303 305 303 301 303 300 317 340 351 334 311 304 301 304 302 298 293 286 283 283 278 280 289 292 294
287 281 284 293 313 328 336 322 320 320 326 329 318 312 308 311 326 331 331 304 315 327 330 321 317 311 318 325 313 308 309 309 308 309 309 309 306 309 311 312 310 309 309 310 312 307 301 297 303 310 312 316 318 310 308 317 305 296 311 314 300 297 294 290 292 289 291 287 286 287 287 287 286 292
255 271 278 292 320 324 323 333 328 312 301 293 292 300 308 310 315 325 322 316 319 330 329 315 310 319 317 308 305 308 309 311 310 307 307 304 308 308 310 308 307 309 312 305 301 296 296 298 308 313 339 328 313 309 315 306 298 299 294 271 279 283 274 279 285 291 294 298 297 301 295 290 287 281
240 264 289 300 297 299 287 291 298 307 307 300 302 301 311 309 304 306 306 303 316 333 313 298 304 310 306 309 315 314 310 308 308 308 308 310 309 310 305 309 310 308 299 295 297 301 304 304 305 336 334 313 301 297 289 283 281 280 285 266 236 237 269 291 298 305 300 295 300 299 295 294 291 294
290 304 294 306 301 300 296 296 298 301 295 298 297 306 296 300 305 303 306 321 316 292 286 303 309 306 306 313 314 314 312 308 307 309 312 309 306 305 312 313 298 295 297 297 301 300 303 314 328 321 301 289 285 285 281 279 281 288 294 297 311 283 254 252 273 283 283 295 298 293 290 291 298 297
286 283 292 295 301 301 292 288 284 278 278 284 293 291 302 308 293 303 297 278 269 287 300 302 305 306 309 313 313 312 310 312 311 307 306 307 310 312 309 305 302 304 302 301 302 303 304 306 301 298 294 297 293 289 286 287 290 293 293 302 297 277 257 262 272 247 241 282 300 289 282 287 287 285
316 311 303 305 307 304 303 306 320 302 289 278 271 285 283 285 287 290 292 297 300 296 297 303 309 311 310 310 310 310 309 306 305 307 310 313 313 310 306 300 299 299 298 296 296 297 301 302 306 302 296 291 289 284 284 288 291 291 294 296 298 307 301 288 272 266 263 257 247 246 258 268 281 279
323 353 359 6 358 351 354 351 346 339 329 310 289 277 277 280 284 287 291 297 301 300 301 295 296 299 303 307 306 305 304 309 314 313 310 306 303 298 295 296 295 297 300 300 301 303 305 304 297 299 299 296 296 291 286 289 287 292 295 297 299 300 297 302 298 268 249 243 248 247 243 241 241 249
333 3 341 343 337 331 337 340 344 343 338 336 324 305 296 293 291 299 302 301 297 301 303 304 303 300 298 301 305 305 309 314 304 294 291 295 298 302 304 304 301 298 297 300 301 299 299 301 307 307 298 294 294 292 293 288 289 292 290 290 293 294 297 302 304 301 298 295 273 253 246 246 247 250